Regional Weather Roundup
Issued by NWS

Home | Current Version | Previous Version | Graphics & Text | Print | Product List | Glossary On
Versions: 1 2 3 4 5 6 7 8 9 10 11 12 13 14 15 16 17 18 19 20 21 22 23 24 25 26 27 28 29 30 31 32 33 34 35 36 37 38 39 40 41 42 43 44 45 46 47 48 49 50
000
ASUS43 KLMK 271702
RWRKY
KENTUCKY REGIONAL WEATHER ROUNDUP
NATIONAL WEATHER SERVICE LOUISVILLE KY
100 PM EDT MON APR 27 2015

NOTE "FAIR" INDICATES FEW OR NO CLOUDS BELOW 12,000 FEET
WITH NO SIGNIFICANT WEATHER AND/OR OBSTRUCTIONS TO VISIBILITY.

KYZ001>023-026-027-061>063-070>075-271800-
WESTERN AND SOUTH CENTRAL KENTUCKY

CITY           SKY/WX    TMP DP  RH WIND       PRES   REMARKS
PADUCAH        PTSUNNY   61  37  41 NE12      30.06F
HENDERSON      MOSUNNY   57  34  41 N7        30.06F
OWENSBORO      MOSUNNY   59  30  33 N9        30.05F
HOPKINSVILLE   MOSUNNY   60  40  47 N10       30.01F
BOWLING GREEN  SUNNY     62  38  40 CALM      30.01F
GLASGOW        NOT AVBL
$$

KYZ024-025-028>034-038-045-046-053-271800-
NORTH CENTRAL KENTUCKY

CITY           SKY/WX    TMP DP  RH WIND       PRES   REMARKS
LOUISVILLE/SDF MOSUNNY   62  34  35 NE10      30.02F
LOUISVILLE/LOU SUNNY     60  32  34 NW8       30.03S
FORT KNOX      SUNNY     61  36  39 VRB1      30.00F
$$

KYZ035>037-039>044-047>052-055>060-089>105-271800-
NORTHEAST KENTUCKY

CITY           SKY/WX    TMP DP  RH WIND       PRES   REMARKS
LEXINGTON      SUNNY     58  36  43 W6        30.01R
COVINGTON      MOSUNNY   61  36  39 NW10G17   29.98S
FRANKFORT      PTSUNNY   59  34  39 VRB6      29.99S
$$

KYZ054-064>069-076>088-106>120-271800-
SOUTHEAST KENTUCKY

CITY           SKY/WX    TMP DP  RH WIND       PRES   REMARKS
JACKSON        PTSUNNY   56  30  37 VRB6G17   29.98R
LONDON         MOSUNNY   60  29  30 VRB6      29.99F
SOMERSET       NOT AVBL
MIDDLESBORO    MOSUNNY   59  34  39 NW9       29.97F
MONTICELLO     SUNNY     62  36  38 N12       30.02F
$$



USA.gov is the U.S. government's official web portal to all federal, state and local government web resources and services.